Flag for Germany Weather past 2 weeks in Leutkirch im Allgäu, Baden-Württemberg, Germany

Now
59 °F

Light freezing rain. Low clouds.


Feels Like: 59 °F
Forecast: 59 / 74 °F
Wind: 2 mph from Southwest

Location: Kempten

Current Time: Jul 22, 2014 at 9:58:25 AM

Latest Report: Jul 22, 2014 at 9:00 AM


Visibility: 5 mi

Pressure: 29.86 "Hg

Humidity: 98%

Dew point: 58 °F

Location of Leutkirch im AllgäuLocation

Historic Weather in Leutkirch im Allgäu — Graph

°F

Leutkirch im Allgäu temperature yesterday

Maximum temperature yesterday: 65 °F (at 1:00 AM)
Minimum temperature yesterday: 57 °F (at 8:00 AM)
Average temperature yesterday: 59 °F

Past Weeks' High & Low Weather Summary

 TemperatureHumidityPressure
High88 °F (Jul 19, 4:00 PM)99% (Jul 13, 4:00 AM)30.22 "Hg (Jul 13, 4:00 AM)
Low48 °F (Jul 10, 5:00 AM)24% (Jul 19, 6:00 PM)29.76 "Hg (Jul 20, 7:00 PM)
Average63 °F79%29.95 "Hg
* Reported Jul 7 9:00 AM — Jul 22 9:00 AM, Leutkirch im Allgäu, Weather by CustomWeather, © 2014

Note: Actual official high and low records may vary slightly from our data, if they occured in-between our weather recording intervals... More about our weather records

Advertising

Leutkirch im Allgäu weather history for previous 24 hours

 ConditionsComfort  
Time TempWeatherWind HumidityBarometerVisibility
9:00 AM
Jul 22
59 °FLight freezing rain. Low clouds.2 mph98%29.86 "Hg5 mi
8:00 AM58 °FRain. Low clouds.3 mph99%29.85 "Hg3 mi
7:00 AM58 °FRain. Dense fog.3 mph99%29.85 "Hg1 mi
6:00 AM58 °FRain. Overcast.2 mph99%29.85 "Hg1 mi
4:00 AM58 °FLight freezing rain. Low clouds.2 mph99%29.85 "Hg7 mi
3:00 AM57 °FRain. Overcast.3 mph99%29.87 "Hg2 mi
2:00 AM58 °FLight rain. Low clouds.3 mph97%29.88 "Hg5 mi
1:00 AM58 °FLight rain. Overcast.2 mph97%29.89 "Hg4 mi
12:00 AM58 °FDrizzle. Overcast.2 mph96%29.90 "Hg22 mi
10:00 PM
Jul 21
58 °FDrizzle. Overcast.2 mph97%29.93 "Hg9 mi
9:00 PM58 °FLight freezing rain. Low clouds.2 mph97%29.92 "Hg8 mi
8:00 PM58 °FLight freezing rain. Overcast.2 mph95%29.92 "Hg7 mi
7:00 PM59 °FLight rain. Overcast.2 mph96%29.91 "Hg8 mi
6:00 PM59 °FLight rain. Overcast.2 mph94%29.91 "Hg7 mi
4:00 PM59 °FLight rain. Overcast.2 mph95%29.92 "Hg3 mi
3:00 PM59 °FLight rain. Overcast.2 mph94%29.92 "Hg5 mi
2:00 PM60 °FLight rain. Overcast.3 mph94%29.91 "Hg9 mi
1:00 PM59 °FLight rain. Overcast.2 mph95%29.92 "Hg7 mi
12:00 PM58 °FRain. Overcast.1 mph94%29.93 "Hg2 mi
11:00 AM58 °FRain. Overcast.2 mph93%29.92 "Hg3 mi
10:00 AM58 °FOvercast.1 mph94%29.91 "Hg28 mi
9:00 AM58 °FLight rain. Overcast.2 mph93%29.92 "Hg11 mi
Weather by CustomWeather, © 2014

See weather overviewHow to use our weather pages